NVY845 CYDF-KBID

Flight info

Callsign NVY845
Flight time 3h 36m
Altitude 28000
Route CADIL DCT AVRUN DCT CHRIT DCT ARMIE DCT BUZRD DCT WAVON
Aircraft P46T/L-SBDGRWY/SB1

Departure

Time 2026-05-04 13:12
Airport Deer Lake Airport (CYDF)

Arrival

Time 2026-05-04 16:48
Airport Block Island State Airport (KBID)
Time Latitude Longitude Altitude Speed Heading
2026-05-04 13:12 49.24291 -57.41227 4771 ft 122 kts 221°
2026-05-04 13:12 49.23790 -57.42286 5282 ft 123 kts 220°
2026-05-04 13:12 49.23278 -57.43345 5800 ft 124 kts 219°
2026-05-04 13:12 49.22766 -57.44420 6294 ft 127 kts 220°
2026-05-04 13:13 49.22252 -57.45504 6766 ft 128 kts 221°
2026-05-04 13:13 49.21726 -57.46613 7273 ft 130 kts 222°
2026-05-04 13:13 49.21194 -57.47737 7762 ft 131 kts 223°
2026-05-04 13:13 49.20657 -57.48870 8257 ft 132 kts 224°
2026-05-04 13:14 49.20112 -57.50020 8735 ft 135 kts 225°
2026-05-04 13:14 49.19548 -57.51202 9095 ft 146 kts 225°
2026-05-04 13:14 49.18928 -57.52513 9408 ft 153 kts 226°
2026-05-04 13:14 49.18305 -57.53833 9830 ft 154 kts 226°
2026-05-04 13:15 49.17670 -57.55167 10232 ft 156 kts 226°
2026-05-04 13:15 49.17040 -57.56494 10629 ft 157 kts 226°
2026-05-04 13:15 49.16394 -57.57853 11021 ft 159 kts 225°
2026-05-04 13:15 49.15742 -57.59222 11402 ft 160 kts 225°
2026-05-04 13:16 49.15083 -57.60604 11783 ft 162 kts 225°
2026-05-04 13:16 49.14416 -57.62004 12183 ft 164 kts 225°
2026-05-04 13:16 49.13744 -57.63413 12602 ft 165 kts 225°
2026-05-04 13:16 49.13065 -57.64837 13009 ft 167 kts 225°
2026-05-04 13:17 49.12380 -57.66272 13376 ft 168 kts 225°
2026-05-04 13:17 49.11690 -57.67717 13735 ft 169 kts 225°
2026-05-04 13:17 49.11006 -57.69151 14091 ft 170 kts 225°
2026-05-04 13:17 49.10306 -57.70613 14440 ft 171 kts 225°
2026-05-04 13:18 49.09603 -57.72083 14764 ft 172 kts 225°
2026-05-04 13:18 49.08895 -57.73565 15083 ft 173 kts 225°
2026-05-04 13:18 49.08181 -57.75052 15426 ft 174 kts 225°
2026-05-04 13:18 49.07464 -57.76549 15798 ft 175 kts 225°
2026-05-04 13:19 49.06743 -57.78053 16169 ft 177 kts 226°
2026-05-04 13:19 49.06016 -57.79570 16526 ft 178 kts 226°
2026-05-04 13:19 49.05285 -57.81094 16888 ft 179 kts 226°
2026-05-04 13:19 49.04547 -57.82629 17254 ft 180 kts 226°
2026-05-04 13:20 49.03814 -57.84155 17577 ft 181 kts 226°
2026-05-04 13:20 49.03067 -57.85707 17885 ft 182 kts 226°
2026-05-04 13:20 49.02317 -57.87268 18210 ft 183 kts 226°
2026-05-04 13:20 49.01593 -57.88784 18792 ft 167 kts 225°
2026-05-04 13:21 49.00915 -57.90186 19225 ft 165 kts 224°
2026-05-04 13:21 49.00229 -57.91596 19583 ft 166 kts 225°
2026-05-04 13:21 48.99544 -57.93017 19963 ft 167 kts 224°
2026-05-04 13:21 48.98856 -57.94443 20333 ft 168 kts 225°
2026-05-04 13:22 48.98174 -57.95857 20719 ft 168 kts 225°
2026-05-04 13:22 48.97479 -57.97297 21101 ft 169 kts 224°
2026-05-04 13:22 48.96780 -57.98744 21474 ft 170 kts 224°
2026-05-04 13:22 48.96075 -58.00201 21836 ft 171 kts 224°
2026-05-04 13:23 48.95369 -58.01663 22197 ft 172 kts 224°
2026-05-04 13:23 48.94658 -58.03133 22559 ft 173 kts 224°
2026-05-04 13:23 48.93940 -58.04613 22889 ft 174 kts 224°
2026-05-04 13:23 48.93221 -58.06098 23195 ft 175 kts 224°
2026-05-04 13:24 48.92499 -58.07589 23505 ft 175 kts 224°
2026-05-04 13:24 48.91775 -58.09081 23805 ft 176 kts 224°
2026-05-04 13:24 48.91058 -58.10559 24105 ft 176 kts 224°
2026-05-04 13:25 48.89594 -58.13572 24724 ft 178 kts 224°
2026-05-04 13:25 48.88859 -58.15087 25023 ft 178 kts 224°
2026-05-04 13:25 48.88123 -58.16600 25303 ft 179 kts 224°
2026-05-04 13:25 48.87381 -58.18124 25596 ft 180 kts 224°
2026-05-04 13:26 48.86635 -58.19655 25917 ft 181 kts 224°
2026-05-04 13:26 48.85887 -58.21190 26240 ft 181 kts 224°
2026-05-04 13:26 48.85136 -58.22732 26549 ft 182 kts 224°
2026-05-04 13:26 48.84382 -58.24278 26840 ft 183 kts 224°
2026-05-04 13:27 48.83633 -58.25812 27133 ft 185 kts 225°
2026-05-04 13:27 48.82836 -58.27436 27143 ft 198 kts 226°
2026-05-04 13:27 48.81996 -58.29158 27139 ft 208 kts 226°
2026-05-04 13:27 48.81117 -58.30962 27140 ft 216 kts 227°
2026-05-04 13:28 48.80209 -58.32822 27144 ft 223 kts 227°
2026-05-04 13:28 48.79275 -58.34732 27140 ft 228 kts 227°
2026-05-04 13:28 48.78324 -58.36674 27143 ft 231 kts 227°
2026-05-04 13:28 48.77359 -58.38644 27142 ft 234 kts 227°
2026-05-04 13:29 48.76382 -58.40636 27135 ft 237 kts 227°
2026-05-04 13:29 48.75407 -58.42621 27133 ft 239 kts 228°
2026-05-04 13:29 48.74414 -58.44645 27133 ft 240 kts 228°
2026-05-04 13:29 48.73411 -58.46681 27130 ft 242 kts 228°
2026-05-04 13:30 48.72404 -58.48730 27132 ft 242 kts 228°
2026-05-04 13:30 48.71398 -58.50772 27132 ft 242 kts 228°
2026-05-04 13:30 48.70388 -58.52822 27133 ft 243 kts 228°
2026-05-04 13:30 48.69379 -58.54868 27128 ft 243 kts 228°
2026-05-04 13:31 48.68378 -58.56894 27124 ft 243 kts 228°
2026-05-04 13:31 48.67366 -58.58944 27125 ft 244 kts 228°
2026-05-04 13:31 48.66351 -58.60996 27125 ft 243 kts 228°
2026-05-04 13:31 48.65336 -58.63046 27126 ft 244 kts 228°
2026-05-04 13:32 48.64321 -58.65097 27123 ft 244 kts 228°
2026-05-04 13:32 48.63305 -58.67146 27121 ft 244 kts 228°
2026-05-04 13:32 48.62289 -58.69196 27120 ft 244 kts 228°
2026-05-04 13:32 48.61272 -58.71246 27121 ft 244 kts 228°
2026-05-04 13:33 48.60254 -58.73293 27118 ft 244 kts 229°
2026-05-04 13:33 48.59235 -58.75344 27118 ft 244 kts 229°
2026-05-04 13:33 48.58215 -58.77395 27117 ft 244 kts 229°
2026-05-04 13:33 48.57207 -58.79420 27115 ft 244 kts 229°
2026-05-04 13:34 48.56187 -58.81467 27113 ft 244 kts 229°
2026-05-04 13:34 48.55165 -58.83517 27113 ft 244 kts 229°
2026-05-04 13:34 48.54145 -58.85561 27113 ft 244 kts 229°
2026-05-04 13:34 48.53123 -58.87608 27114 ft 244 kts 229°
2026-05-04 13:35 48.52100 -58.89653 27116 ft 245 kts 229°
2026-05-04 13:35 48.50063 -58.93727 27111 ft 245 kts 229°
2026-05-04 13:35 48.49038 -58.95772 27111 ft 245 kts 229°
2026-05-04 13:36 48.48014 -58.97816 27114 ft 244 kts 229°
2026-05-04 13:36 48.46988 -58.99861 27114 ft 244 kts 229°
2026-05-04 13:36 48.45963 -59.01902 27114 ft 244 kts 229°
2026-05-04 13:36 48.44938 -59.03944 27122 ft 244 kts 230°
2026-05-04 13:37 48.43914 -59.05980 27115 ft 245 kts 231°
2026-05-04 13:37 48.42885 -59.08025 27115 ft 245 kts 231°
2026-05-04 13:37 48.41871 -59.10039 27115 ft 245 kts 231°
2026-05-04 13:37 48.40840 -59.12084 27115 ft 245 kts 231°
2026-05-04 13:38 48.39810 -59.14127 27112 ft 245 kts 231°
2026-05-04 13:38 48.38781 -59.16166 27113 ft 245 kts 231°
2026-05-04 13:38 48.37749 -59.18209 27116 ft 245 kts 231°
2026-05-04 13:38 48.36717 -59.20251 27116 ft 245 kts 231°
2026-05-04 13:39 48.35685 -59.22292 27120 ft 245 kts 231°
2026-05-04 13:39 48.34665 -59.24308 27120 ft 245 kts 231°
2026-05-04 13:39 48.33631 -59.26348 27120 ft 245 kts 231°
2026-05-04 13:39 48.32597 -59.28389 27121 ft 246 kts 231°
2026-05-04 13:40 48.31561 -59.30430 27123 ft 246 kts 231°
2026-05-04 13:40 48.30524 -59.32473 27124 ft 246 kts 231°
2026-05-04 13:40 48.29484 -59.34519 27124 ft 246 kts 231°
2026-05-04 13:40 48.28446 -59.36561 27123 ft 246 kts 232°
2026-05-04 13:41 48.27407 -59.38604 27122 ft 246 kts 232°
2026-05-04 13:41 48.26381 -59.40617 27122 ft 246 kts 232°
2026-05-04 13:41 48.25343 -59.42655 27121 ft 246 kts 232°
2026-05-04 13:42 48.23267 -59.46723 27123 ft 245 kts 232°
2026-05-04 13:42 48.22231 -59.48751 27122 ft 245 kts 232°
2026-05-04 13:42 48.21196 -59.50777 27123 ft 245 kts 232°
2026-05-04 13:42 48.20160 -59.52802 27123 ft 245 kts 232°
2026-05-04 13:43 48.19125 -59.54823 27142 ft 245 kts 232°
2026-05-04 13:43 48.18088 -59.56848 27142 ft 245 kts 232°
2026-05-04 13:43 48.17064 -59.58844 27141 ft 245 kts 232°
2026-05-04 13:43 48.16027 -59.60866 27140 ft 245 kts 232°
2026-05-04 13:44 48.14987 -59.62892 27141 ft 245 kts 232°
2026-05-04 13:44 48.13946 -59.64917 27142 ft 246 kts 232°
2026-05-04 13:44 48.12905 -59.66942 27146 ft 245 kts 233°
2026-05-04 13:44 48.11865 -59.68964 27145 ft 245 kts 233°
2026-05-04 13:45 48.10825 -59.70982 27145 ft 245 kts 234°
2026-05-04 13:45 48.09786 -59.72998 27145 ft 245 kts 234°
2026-05-04 13:45 48.08748 -59.75011 27146 ft 244 kts 234°
2026-05-04 13:45 48.07725 -59.76994 27145 ft 244 kts 233°
2026-05-04 13:46 48.06683 -59.79010 27158 ft 245 kts 234°
2026-05-04 13:46 48.05643 -59.81022 27160 ft 245 kts 234°
2026-05-04 13:46 48.04605 -59.83030 27161 ft 244 kts 234°
2026-05-04 13:46 48.03565 -59.85037 27159 ft 244 kts 233°
2026-05-04 13:47 48.02526 -59.87044 27154 ft 244 kts 234°
2026-05-04 13:47 48.01485 -59.89050 27155 ft 244 kts 234°
2026-05-04 13:47 48.00447 -59.91053 27168 ft 244 kts 234°
2026-05-04 13:47 47.99422 -59.93027 27167 ft 244 kts 234°
2026-05-04 13:48 47.98382 -59.95027 27168 ft 244 kts 233°
2026-05-04 13:48 47.97340 -59.97031 27159 ft 244 kts 235°
2026-05-04 13:48 47.96303 -59.99025 27164 ft 243 kts 236°
2026-05-04 13:48 47.95269 -60.01011 27164 ft 242 kts 235°
2026-05-04 13:49 47.94234 -60.02998 27170 ft 243 kts 234°
2026-05-04 13:49 47.93197 -60.04985 27182 ft 242 kts 235°
2026-05-04 13:49 47.92163 -60.06967 27183 ft 242 kts 235°
2026-05-04 13:49 47.91130 -60.08945 27182 ft 242 kts 235°
2026-05-04 13:50 47.90111 -60.10893 27181 ft 242 kts 235°
2026-05-04 13:50 47.89078 -60.12870 27180 ft 242 kts 235°
2026-05-04 13:50 47.88045 -60.14843 27189 ft 241 kts 235°
2026-05-04 13:50 47.87016 -60.16809 27189 ft 241 kts 235°
2026-05-04 13:51 47.85986 -60.18774 27190 ft 241 kts 234°
2026-05-04 13:51 47.84955 -60.20739 27191 ft 241 kts 235°
2026-05-04 13:51 47.83924 -60.22703 27192 ft 241 kts 235°
2026-05-04 13:51 47.82894 -60.24665 27193 ft 240 kts 235°
2026-05-04 13:52 47.80853 -60.28545 27202 ft 239 kts 236°
2026-05-04 13:52 47.79830 -60.30489 27203 ft 238 kts 236°
2026-05-04 13:52 47.78809 -60.32428 27205 ft 238 kts 236°
2026-05-04 13:53 47.77791 -60.34359 27206 ft 237 kts 236°
2026-05-04 13:53 47.76771 -60.36292 27204 ft 237 kts 236°
2026-05-04 13:53 47.75752 -60.38221 27215 ft 237 kts 236°
2026-05-04 13:54 47.73722 -60.42079 27215 ft 236 kts 238°
2026-05-04 13:54 47.72914 -60.44169 27211 ft 233 kts 246°
2026-05-04 13:54 47.71417 -60.48407 27215 ft 233 kts 245°
2026-05-04 13:55 47.70661 -60.50538 27222 ft 233 kts 246°
2026-05-04 13:55 47.69154 -60.54800 27236 ft 234 kts 245°
2026-05-04 13:55 47.68395 -60.56938 27235 ft 234 kts 245°
2026-05-04 13:56 47.67636 -60.59078 27236 ft 234 kts 245°
2026-05-04 13:56 47.66878 -60.61212 27237 ft 233 kts 246°
2026-05-04 13:56 47.65373 -60.65446 27227 ft 234 kts 246°
2026-05-04 13:57 47.64614 -60.67578 27245 ft 234 kts 247°
2026-05-04 13:57 47.63853 -60.69715 27245 ft 235 kts 247°
2026-05-04 13:58 47.61564 -60.76129 27251 ft 235 kts 246°
2026-05-04 13:58 47.60034 -60.80410 27251 ft 235 kts 247°
2026-05-04 13:58 47.59278 -60.82522 27272 ft 235 kts 247°
2026-05-04 13:59 47.58512 -60.84660 27272 ft 235 kts 247°
2026-05-04 13:59 47.57744 -60.86800 27272 ft 235 kts 246°
2026-05-04 13:59 47.56208 -60.91079 27271 ft 235 kts 246°
2026-05-04 14:00 47.55440 -60.93217 27271 ft 235 kts 247°
2026-05-04 14:00 47.53902 -60.97489 27274 ft 235 kts 247°
2026-05-04 14:00 47.53144 -60.99593 27282 ft 235 kts 247°
2026-05-04 14:01 47.52377 -61.01719 27283 ft 234 kts 247°
2026-05-04 14:01 47.51611 -61.03843 27285 ft 233 kts 248°
2026-05-04 14:01 47.50083 -61.08073 27283 ft 233 kts 247°
2026-05-04 14:02 47.49337 -61.10136 27282 ft 233 kts 247°
2026-05-04 14:02 47.48574 -61.12244 27282 ft 233 kts 247°
2026-05-04 14:02 47.47819 -61.14327 27286 ft 233 kts 248°
2026-05-04 14:02 47.47054 -61.16437 27285 ft 233 kts 247°
2026-05-04 14:03 47.46289 -61.18546 27287 ft 233 kts 247°
2026-05-04 14:03 47.45521 -61.20660 27286 ft 234 kts 247°
2026-05-04 14:03 47.44751 -61.22778 27288 ft 234 kts 247°
2026-05-04 14:03 47.43982 -61.24894 27289 ft 234 kts 247°
2026-05-04 14:04 47.42441 -61.29125 27303 ft 234 kts 247°
2026-05-04 14:04 47.41667 -61.31245 27303 ft 235 kts 247°
2026-05-04 14:04 47.40904 -61.33335 27305 ft 234 kts 247°
2026-05-04 14:05 47.39361 -61.37562 27308 ft 234 kts 247°
2026-05-04 14:05 47.38588 -61.39674 27309 ft 234 kts 247°
2026-05-04 14:05 47.37814 -61.41787 27316 ft 234 kts 247°
2026-05-04 14:06 47.37039 -61.43903 27317 ft 234 kts 247°
2026-05-04 14:06 47.36264 -61.46014 27319 ft 233 kts 248°
2026-05-04 14:06 47.35493 -61.48117 27316 ft 234 kts 247°
2026-05-04 14:06 47.34730 -61.50196 27315 ft 234 kts 246°
2026-05-04 14:07 47.33954 -61.52307 27318 ft 235 kts 247°
2026-05-04 14:07 47.33176 -61.54422 27322 ft 235 kts 247°
2026-05-04 14:07 47.32399 -61.56532 27330 ft 234 kts 247°
2026-05-04 14:07 47.31622 -61.58640 27329 ft 234 kts 247°
2026-05-04 14:08 47.30844 -61.60751 27329 ft 235 kts 247°
2026-05-04 14:08 47.30063 -61.62869 27325 ft 235 kts 247°
2026-05-04 14:08 47.29281 -61.64984 27326 ft 235 kts 247°
2026-05-04 14:08 47.28501 -61.67096 27328 ft 234 kts 248°
2026-05-04 14:09 47.26952 -61.71281 27319 ft 234 kts 248°
2026-05-04 14:09 47.26174 -61.73379 27331 ft 233 kts 248°
2026-05-04 14:10 47.24623 -61.77563 27338 ft 232 kts 249°
2026-05-04 14:10 47.23849 -61.79647 27337 ft 232 kts 248°
2026-05-04 14:10 47.23076 -61.81729 27335 ft 232 kts 247°
2026-05-04 14:10 47.22299 -61.83817 27339 ft 233 kts 248°
2026-05-04 14:11 47.21523 -61.85903 27355 ft 232 kts 248°
2026-05-04 14:11 47.19983 -61.90034 27390 ft 232 kts 248°
2026-05-04 14:11 47.19207 -61.92114 27388 ft 232 kts 247°
2026-05-04 14:12 47.18429 -61.94198 27384 ft 233 kts 248°
2026-05-04 14:12 47.17650 -61.96284 27386 ft 233 kts 248°
2026-05-04 14:12 47.16091 -62.00450 27418 ft 233 kts 248°
2026-05-04 14:13 47.15310 -62.02536 27416 ft 233 kts 247°
2026-05-04 14:13 47.14538 -62.04596 27416 ft 233 kts 248°
2026-05-04 14:13 47.13756 -62.06682 27417 ft 233 kts 248°
2026-05-04 14:13 47.12976 -62.08757 27424 ft 231 kts 248°
2026-05-04 14:14 47.12201 -62.10819 27423 ft 231 kts 248°
2026-05-04 14:14 47.10651 -62.14942 27436 ft 231 kts 248°
2026-05-04 14:14 47.09875 -62.17002 27436 ft 230 kts 248°
2026-05-04 14:15 47.08328 -62.21106 27436 ft 230 kts 248°
2026-05-04 14:15 47.06789 -62.25181 27433 ft 231 kts 248°
2026-05-04 14:16 47.05234 -62.29297 27449 ft 231 kts 248°
2026-05-04 14:16 47.04455 -62.31354 27454 ft 231 kts 248°
2026-05-04 14:17 47.02891 -62.35479 27451 ft 232 kts 248°
2026-05-04 14:17 47.02108 -62.37545 27460 ft 233 kts 247°
2026-05-04 14:17 47.00546 -62.41655 27458 ft 232 kts 248°
2026-05-04 14:18 46.99760 -62.43721 27452 ft 232 kts 247°
2026-05-04 14:18 46.98193 -62.47837 27468 ft 231 kts 247°
2026-05-04 14:19 46.96630 -62.51935 27468 ft 230 kts 248°
2026-05-04 14:19 46.95848 -62.53984 27466 ft 231 kts 247°
2026-05-04 14:19 46.95065 -62.56033 27466 ft 231 kts 247°
2026-05-04 14:19 46.94283 -62.58080 27475 ft 231 kts 248°
2026-05-04 14:20 46.93511 -62.60098 27477 ft 230 kts 247°
2026-05-04 14:20 46.92728 -62.62141 27476 ft 230 kts 247°
2026-05-04 14:20 46.91945 -62.64184 27476 ft 230 kts 247°
2026-05-04 14:21 46.90374 -62.68281 27474 ft 231 kts 247°
2026-05-04 14:21 46.89589 -62.70323 27485 ft 230 kts 247°
2026-05-04 14:21 46.88806 -62.72361 27489 ft 230 kts 247°
2026-05-04 14:21 46.88020 -62.74404 27487 ft 231 kts 246°
2026-05-04 14:22 46.87245 -62.76418 27489 ft 231 kts 247°
2026-05-04 14:22 46.86458 -62.78460 27489 ft 230 kts 247°
2026-05-04 14:22 46.85673 -62.80494 27489 ft 229 kts 247°
2026-05-04 14:22 46.84891 -62.82521 27488 ft 229 kts 247°
2026-05-04 14:23 46.83324 -62.86579 27495 ft 229 kts 247°
2026-05-04 14:23 46.82539 -62.88609 27497 ft 229 kts 247°
2026-05-04 14:23 46.81756 -62.90633 27497 ft 229 kts 247°
2026-05-04 14:24 46.80973 -62.92656 27497 ft 229 kts 247°
2026-05-04 14:24 46.80200 -62.94650 27496 ft 229 kts 247°
2026-05-04 14:24 46.79414 -62.96677 27497 ft 229 kts 247°
2026-05-04 14:24 46.78627 -62.98703 27496 ft 230 kts 247°
2026-05-04 14:25 46.77842 -63.00725 27509 ft 229 kts 246°
2026-05-04 14:25 46.76265 -63.04782 27508 ft 230 kts 246°
2026-05-04 14:25 46.75473 -63.06815 27509 ft 231 kts 246°
2026-05-04 14:26 46.74678 -63.08854 27515 ft 231 kts 246°
2026-05-04 14:26 46.73886 -63.10887 27516 ft 231 kts 246°
2026-05-04 14:26 46.73102 -63.12897 27516 ft 231 kts 246°
2026-05-04 14:26 46.72306 -63.14935 27509 ft 231 kts 245°
2026-05-04 14:27 46.71511 -63.16969 27520 ft 231 kts 245°
2026-05-04 14:27 46.70714 -63.19009 27520 ft 232 kts 245°
2026-05-04 14:27 46.69915 -63.21050 27520 ft 232 kts 245°
2026-05-04 14:27 46.69113 -63.23096 27523 ft 232 kts 245°
2026-05-04 14:28 46.68312 -63.25142 27521 ft 233 kts 245°
2026-05-04 14:28 46.67509 -63.27188 27519 ft 233 kts 245°
2026-05-04 14:28 46.66707 -63.29232 27532 ft 233 kts 245°
2026-05-04 14:28 46.65913 -63.31253 27534 ft 233 kts 245°
2026-05-04 14:29 46.64303 -63.35347 27538 ft 234 kts 245°
2026-05-04 14:29 46.62642 -63.39579 26801 ft 257 kts 245°
2026-05-04 14:30 46.61742 -63.41866 26446 ft 261 kts 244°
2026-05-04 14:30 46.60840 -63.44138 26236 ft 259 kts 244°
2026-05-04 14:30 46.59052 -63.48661 25774 ft 257 kts 245°
2026-05-04 14:31 46.58165 -63.50906 25558 ft 254 kts 244°
2026-05-04 14:31 46.56460 -63.55201 25547 ft 241 kts 245°
2026-05-04 14:32 46.54869 -63.59391 25554 ft 234 kts 246°
2026-05-04 14:32 46.54089 -63.61450 25553 ft 232 kts 246°
2026-05-04 14:32 46.53314 -63.63498 25556 ft 231 kts 246°
2026-05-04 14:32 46.52544 -63.65540 25557 ft 230 kts 246°
2026-05-04 14:33 46.51776 -63.67574 25554 ft 230 kts 246°
2026-05-04 14:33 46.51009 -63.69602 25555 ft 229 kts 246°
2026-05-04 14:33 46.50255 -63.71598 25564 ft 228 kts 246°
2026-05-04 14:33 46.49479 -63.73646 25560 ft 229 kts 245°
2026-05-04 14:34 46.48724 -63.75639 25563 ft 229 kts 245°
2026-05-04 14:34 46.47956 -63.77664 25563 ft 229 kts 245°
2026-05-04 14:34 46.47189 -63.79686 25564 ft 229 kts 245°
2026-05-04 14:34 46.46421 -63.81709 25564 ft 230 kts 245°
2026-05-04 14:35 46.45649 -63.83740 25562 ft 230 kts 245°
2026-05-04 14:35 46.44875 -63.85777 25569 ft 231 kts 245°
2026-05-04 14:35 46.44099 -63.87815 25576 ft 231 kts 244°
2026-05-04 14:35 46.43323 -63.89853 25587 ft 231 kts 245°
2026-05-04 14:36 46.42556 -63.91866 25583 ft 231 kts 244°
2026-05-04 14:36 46.41778 -63.93907 25585 ft 231 kts 244°
2026-05-04 14:36 46.40999 -63.95946 25583 ft 231 kts 244°
2026-05-04 14:36 46.40220 -63.97987 25584 ft 232 kts 244°
2026-05-04 14:37 46.39440 -64.00026 25590 ft 231 kts 244°
2026-05-04 14:37 46.38660 -64.02066 25591 ft 232 kts 244°
2026-05-04 14:37 46.37879 -64.04105 25591 ft 232 kts 244°
2026-05-04 14:37 46.37097 -64.06143 25590 ft 232 kts 244°
2026-05-04 14:38 46.36315 -64.08184 25592 ft 232 kts 244°
2026-05-04 14:38 46.35543 -64.10194 25594 ft 231 kts 244°
2026-05-04 14:38 46.34762 -64.12229 25593 ft 231 kts 244°
2026-05-04 14:38 46.33979 -64.14266 25601 ft 231 kts 244°
2026-05-04 14:39 46.33196 -64.16303 25601 ft 232 kts 244°
2026-05-04 14:39 46.32414 -64.18335 25606 ft 232 kts 244°
2026-05-04 14:39 46.31630 -64.20370 25606 ft 231 kts 244°
2026-05-04 14:40 46.30069 -64.24420 25605 ft 230 kts 244°
2026-05-04 14:40 46.29289 -64.26441 25607 ft 230 kts 244°
2026-05-04 14:40 46.28519 -64.28433 25616 ft 230 kts 244°
2026-05-04 14:40 46.27740 -64.30449 25619 ft 229 kts 244°
2026-05-04 14:41 46.26960 -64.32464 25619 ft 230 kts 244°
2026-05-04 14:41 46.26181 -64.34476 25619 ft 230 kts 244°
2026-05-04 14:41 46.24618 -64.38510 25622 ft 230 kts 244°
2026-05-04 14:42 46.23056 -64.42534 25630 ft 230 kts 244°
2026-05-04 14:42 46.22274 -64.44547 25630 ft 230 kts 244°
2026-05-04 14:42 46.21491 -64.46559 25635 ft 230 kts 244°
2026-05-04 14:43 46.20717 -64.48548 25633 ft 230 kts 244°
2026-05-04 14:43 46.19934 -64.50559 25635 ft 230 kts 244°
2026-05-04 14:43 46.19152 -64.52567 25634 ft 230 kts 244°
2026-05-04 14:43 46.18368 -64.54576 25633 ft 230 kts 244°
2026-05-04 14:44 46.17581 -64.56592 25631 ft 230 kts 244°
2026-05-04 14:44 46.16798 -64.58598 25630 ft 229 kts 245°
2026-05-04 14:44 46.16015 -64.60599 25633 ft 229 kts 245°
2026-05-04 14:44 46.15234 -64.62598 25632 ft 229 kts 245°
2026-05-04 14:45 46.14462 -64.64569 25634 ft 229 kts 245°
2026-05-04 14:45 46.13682 -64.66562 25633 ft 228 kts 245°
2026-05-04 14:45 46.12900 -64.68555 25629 ft 228 kts 245°
2026-05-04 14:45 46.12120 -64.70545 25636 ft 228 kts 245°
2026-05-04 14:46 46.11337 -64.72538 25640 ft 228 kts 245°
2026-05-04 14:46 46.10556 -64.74528 25647 ft 228 kts 245°
2026-05-04 14:46 46.09773 -64.76517 25642 ft 228 kts 245°
2026-05-04 14:46 46.08992 -64.78504 25645 ft 228 kts 245°
2026-05-04 14:47 46.08209 -64.80493 25647 ft 228 kts 245°
2026-05-04 14:47 46.07426 -64.82481 25644 ft 228 kts 245°
2026-05-04 14:47 46.06654 -64.84437 25658 ft 228 kts 245°
2026-05-04 14:47 46.05871 -64.86424 25656 ft 228 kts 245°
2026-05-04 14:48 46.05086 -64.88411 25660 ft 229 kts 245°
2026-05-04 14:48 46.04299 -64.90402 25658 ft 229 kts 244°
2026-05-04 14:48 46.03512 -64.92393 25657 ft 229 kts 245°
2026-05-04 14:48 46.02726 -64.94379 25659 ft 228 kts 244°
2026-05-04 14:49 46.01940 -64.96365 25655 ft 228 kts 245°
2026-05-04 14:49 46.01163 -64.98324 25665 ft 228 kts 245°
2026-05-04 14:49 46.00378 -65.00304 25668 ft 228 kts 245°
2026-05-04 14:49 45.99593 -65.02284 25669 ft 228 kts 245°
2026-05-04 14:50 45.98806 -65.04264 25672 ft 228 kts 244°
2026-05-04 14:50 45.98020 -65.06243 25674 ft 228 kts 244°
2026-05-04 14:50 45.97234 -65.08219 25673 ft 228 kts 244°
2026-05-04 14:50 45.96447 -65.10196 25675 ft 228 kts 244°
2026-05-04 14:51 45.95660 -65.12172 25678 ft 228 kts 244°
2026-05-04 14:51 45.94872 -65.14148 25680 ft 228 kts 244°
2026-05-04 14:51 45.94095 -65.16099 25679 ft 228 kts 244°
2026-05-04 14:51 45.93305 -65.18077 25678 ft 228 kts 244°
2026-05-04 14:52 45.92517 -65.20049 25684 ft 228 kts 244°
2026-05-04 14:52 45.91729 -65.22020 25682 ft 227 kts 244°
2026-05-04 14:52 45.90942 -65.23988 25681 ft 227 kts 244°
2026-05-04 14:52 45.90155 -65.25955 25673 ft 227 kts 245°
2026-05-04 14:53 45.89372 -65.27908 25693 ft 226 kts 245°
2026-05-04 14:53 45.88599 -65.29837 25702 ft 225 kts 245°
2026-05-04 14:53 45.87817 -65.31786 25701 ft 225 kts 245°
2026-05-04 14:53 45.87037 -65.33732 25700 ft 225 kts 245°
2026-05-04 14:54 45.86254 -65.35682 25700 ft 226 kts 245°
2026-05-04 14:54 45.85467 -65.37638 25705 ft 226 kts 245°
2026-05-04 14:54 45.84680 -65.39597 25718 ft 227 kts 245°
2026-05-04 14:54 45.83887 -65.41566 25715 ft 228 kts 245°
2026-05-04 14:55 45.83096 -65.43529 25718 ft 227 kts 245°
2026-05-04 14:55 45.82304 -65.45493 25717 ft 228 kts 245°
2026-05-04 14:55 45.81512 -65.47457 25717 ft 228 kts 245°
2026-05-04 14:55 45.80727 -65.49402 25718 ft 229 kts 245°
2026-05-04 14:56 45.79930 -65.51377 25713 ft 229 kts 245°
2026-05-04 14:56 45.79133 -65.53346 25720 ft 228 kts 245°
2026-05-04 14:56 45.78339 -65.55308 25721 ft 227 kts 245°
2026-05-04 14:56 45.77547 -65.57264 25719 ft 227 kts 245°
2026-05-04 14:57 45.76755 -65.59220 25720 ft 226 kts 245°
2026-05-04 14:57 45.75967 -65.61164 25715 ft 225 kts 246°
2026-05-04 14:57 45.75181 -65.63100 25714 ft 225 kts 246°
2026-05-04 14:57 45.74397 -65.65033 25713 ft 224 kts 246°
2026-05-04 14:58 45.73623 -65.66938 25719 ft 224 kts 246°
2026-05-04 14:58 45.72839 -65.68866 25720 ft 224 kts 246°
2026-05-04 14:58 45.72056 -65.70792 25720 ft 224 kts 246°
2026-05-04 14:58 45.71527 -65.72091 25720 ft 224 kts 246°
2026-05-04 14:59 45.70489 -65.74641 25720 ft 224 kts 246°
2026-05-04 14:59 45.69704 -65.76564 25720 ft 224 kts 246°
2026-05-04 14:59 45.68134 -65.80413 25732 ft 224 kts 246°
2026-05-04 15:00 45.67350 -65.82331 25734 ft 223 kts 246°
2026-05-04 15:00 45.66578 -65.84219 25735 ft 222 kts 246°
2026-05-04 15:00 45.65800 -65.86122 25735 ft 221 kts 246°
2026-05-04 15:01 45.64247 -65.89916 25735 ft 221 kts 246°
2026-05-04 15:01 45.63470 -65.91810 25735 ft 221 kts 245°
2026-05-04 15:01 45.62693 -65.93703 25727 ft 221 kts 246°
2026-05-04 15:01 45.61920 -65.95586 25744 ft 220 kts 246°
2026-05-04 15:02 45.61147 -65.97471 25744 ft 220 kts 246°
2026-05-04 15:02 45.60374 -65.99350 25745 ft 219 kts 246°
2026-05-04 15:02 45.59612 -66.01205 25748 ft 220 kts 246°
2026-05-04 15:02 45.58834 -66.03098 25751 ft 222 kts 246°
2026-05-04 15:03 45.58050 -66.05000 25752 ft 223 kts 246°
2026-05-04 15:03 45.57265 -66.06904 25751 ft 223 kts 246°
2026-05-04 15:03 45.56481 -66.08804 25756 ft 222 kts 246°
2026-05-04 15:03 45.55698 -66.10703 25756 ft 222 kts 246°
2026-05-04 15:04 45.54917 -66.12593 25758 ft 222 kts 246°
2026-05-04 15:04 45.54132 -66.14496 25760 ft 223 kts 246°
2026-05-04 15:04 45.53345 -66.16398 25756 ft 223 kts 246°
2026-05-04 15:04 45.52570 -66.18266 25756 ft 222 kts 246°
2026-05-04 15:05 45.51787 -66.20158 25753 ft 221 kts 246°
2026-05-04 15:05 45.51009 -66.22038 25754 ft 220 kts 246°
2026-05-04 15:05 45.50230 -66.23915 25753 ft 220 kts 246°
2026-05-04 15:05 45.49452 -66.25791 25753 ft 220 kts 246°
2026-05-04 15:06 45.48674 -66.27665 25729 ft 220 kts 246°
2026-05-04 15:06 45.47900 -66.29526 25754 ft 218 kts 247°
2026-05-04 15:06 45.47137 -66.31362 25753 ft 218 kts 247°
2026-05-04 15:07 45.45594 -66.35071 25760 ft 217 kts 247°
2026-05-04 15:07 45.44823 -66.36921 25759 ft 217 kts 247°
2026-05-04 15:07 45.44052 -66.38771 25759 ft 217 kts 247°
2026-05-04 15:07 45.43281 -66.40619 25759 ft 217 kts 247°
2026-05-04 15:08 45.42510 -66.42468 25762 ft 217 kts 247°
2026-05-04 15:08 45.41738 -66.44315 25762 ft 217 kts 247°
2026-05-04 15:08 45.40966 -66.46162 25761 ft 217 kts 247°
2026-05-04 15:08 45.40196 -66.48004 25767 ft 217 kts 247°
2026-05-04 15:09 45.39434 -66.49824 25773 ft 217 kts 246°
2026-05-04 15:09 45.38662 -66.51667 25774 ft 217 kts 246°
2026-05-04 15:09 45.37892 -66.53506 25775 ft 217 kts 246°
2026-05-04 15:10 45.36349 -66.57184 25771 ft 216 kts 246°
2026-05-04 15:10 45.35578 -66.59020 25769 ft 216 kts 246°
2026-05-04 15:10 45.34051 -66.62653 25772 ft 215 kts 246°
2026-05-04 15:11 45.33286 -66.64474 25772 ft 215 kts 246°
2026-05-04 15:11 45.32518 -66.66297 25771 ft 215 kts 246°
2026-05-04 15:11 45.31751 -66.68117 25772 ft 215 kts 246°
2026-05-04 15:11 45.30985 -66.69935 25771 ft 215 kts 246°
2026-05-04 15:12 45.30217 -66.71757 25771 ft 215 kts 246°
2026-05-04 15:12 45.29448 -66.73578 25770 ft 215 kts 246°
2026-05-04 15:12 45.28678 -66.75401 25775 ft 215 kts 246°
2026-05-04 15:12 45.27907 -66.77224 25775 ft 215 kts 246°
2026-05-04 15:13 45.27148 -66.79020 25775 ft 215 kts 246°
2026-05-04 15:13 45.26379 -66.80838 25775 ft 215 kts 246°
2026-05-04 15:13 45.25608 -66.82659 25774 ft 215 kts 246°
2026-05-04 15:13 45.24838 -66.84475 25774 ft 215 kts 246°
2026-05-04 15:14 45.24068 -66.86291 25777 ft 215 kts 246°
2026-05-04 15:14 45.23298 -66.88107 25779 ft 215 kts 246°
2026-05-04 15:14 45.22528 -66.89922 25779 ft 215 kts 246°
2026-05-04 15:14 45.21757 -66.91736 25779 ft 215 kts 246°
2026-05-04 15:15 45.20987 -66.93549 25766 ft 215 kts 246°
2026-05-04 15:15 45.20227 -66.95333 25780 ft 214 kts 246°
2026-05-04 15:15 45.19457 -66.97145 25780 ft 215 kts 246°
2026-05-04 15:16 45.17912 -67.00769 25783 ft 215 kts 246°
2026-05-04 15:16 45.17141 -67.02579 25783 ft 215 kts 246°
2026-05-04 15:16 45.15596 -67.06199 25782 ft 215 kts 246°
2026-05-04 15:17 45.14833 -67.07982 25782 ft 214 kts 246°
2026-05-04 15:17 45.13289 -67.11594 25785 ft 215 kts 246°
2026-05-04 15:17 45.12516 -67.13402 25784 ft 215 kts 246°
2026-05-04 15:18 45.11742 -67.15208 25784 ft 215 kts 246°
2026-05-04 15:18 45.10968 -67.17015 25786 ft 215 kts 245°
2026-05-04 15:18 45.10192 -67.18823 25790 ft 215 kts 245°
2026-05-04 15:19 45.08640 -67.22438 25786 ft 215 kts 245°
2026-05-04 15:19 45.07863 -67.24247 25786 ft 215 kts 245°
2026-05-04 15:19 45.06321 -67.27831 25794 ft 214 kts 245°
2026-05-04 15:20 45.05545 -67.29633 25791 ft 214 kts 245°
2026-05-04 15:20 45.04770 -67.31433 25792 ft 214 kts 245°
2026-05-04 15:20 45.03994 -67.33234 25789 ft 214 kts 245°
2026-05-04 15:20 45.03218 -67.35032 25790 ft 214 kts 245°
2026-05-04 15:21 45.02441 -67.36832 25787 ft 214 kts 245°
2026-05-04 15:21 45.01664 -67.38630 25789 ft 214 kts 245°
2026-05-04 15:21 45.00122 -67.42199 25788 ft 214 kts 245°
2026-05-04 15:22 44.99345 -67.43995 25791 ft 214 kts 245°
2026-05-04 15:22 44.98567 -67.45791 25788 ft 214 kts 245°
2026-05-04 15:22 44.96823 -67.49235 25791 ft 217 kts 239°
2026-05-04 15:23 44.95897 -67.50921 25792 ft 217 kts 240°
2026-05-04 15:23 44.94971 -67.52608 25790 ft 218 kts 239°
2026-05-04 15:23 44.94040 -67.54294 25798 ft 217 kts 239°
2026-05-04 15:23 44.93121 -67.55953 25795 ft 218 kts 239°
2026-05-04 15:24 44.91263 -67.59307 25797 ft 216 kts 240°
2026-05-04 15:24 44.89409 -67.62654 25798 ft 217 kts 240°
2026-05-04 15:25 44.88482 -67.64325 25801 ft 217 kts 239°
2026-05-04 15:25 44.87552 -67.65999 25800 ft 217 kts 239°
2026-05-04 15:25 44.86623 -67.67671 25801 ft 217 kts 239°
2026-05-04 15:26 44.84778 -67.70991 25798 ft 217 kts 239°
2026-05-04 15:26 44.83849 -67.72662 25798 ft 216 kts 239°
2026-05-04 15:26 44.81991 -67.75998 25798 ft 217 kts 239°
2026-05-04 15:27 44.81061 -67.77667 25798 ft 217 kts 239°
2026-05-04 15:27 44.79199 -67.81004 25798 ft 217 kts 239°
2026-05-04 15:28 44.77350 -67.84314 25791 ft 216 kts 239°
2026-05-04 15:28 44.76423 -67.85972 25812 ft 216 kts 239°
2026-05-04 15:28 44.74569 -67.89286 25812 ft 216 kts 239°
2026-05-04 15:29 44.73640 -67.90945 25811 ft 216 kts 239°
2026-05-04 15:30 44.70241 -67.97007 25808 ft 216 kts 239°
2026-05-04 15:30 44.67150 -68.02509 25810 ft 216 kts 239°
2026-05-04 15:31 44.65605 -68.05254 25811 ft 215 kts 239°
2026-05-04 15:31 44.64675 -68.06906 25810 ft 215 kts 239°
2026-05-04 15:32 44.61600 -68.12361 25813 ft 215 kts 239°
2026-05-04 15:32 44.60043 -68.15118 25816 ft 216 kts 239°
2026-05-04 15:33 44.58193 -68.18392 25822 ft 216 kts 239°
2026-05-04 15:34 44.55394 -68.23337 25821 ft 216 kts 239°
2026-05-04 15:34 44.54459 -68.24986 25823 ft 216 kts 239°
2026-05-04 15:34 44.52589 -68.28283 25824 ft 216 kts 239°
2026-05-04 15:35 44.50734 -68.31550 25824 ft 216 kts 239°
2026-05-04 15:35 44.49800 -68.33194 25824 ft 216 kts 239°
2026-05-04 15:35 44.48865 -68.34838 25824 ft 216 kts 239°
2026-05-04 15:36 44.46996 -68.38122 25818 ft 215 kts 239°
2026-05-04 15:36 44.46066 -68.39755 25818 ft 215 kts 239°
2026-05-04 15:36 44.45134 -68.41391 25818 ft 215 kts 239°
2026-05-04 15:37 44.44201 -68.43028 25821 ft 215 kts 239°
2026-05-04 15:37 44.43266 -68.44667 25817 ft 215 kts 239°
2026-05-04 15:37 44.42345 -68.46280 25815 ft 215 kts 239°
2026-05-04 15:37 44.41409 -68.47917 25822 ft 215 kts 239°
2026-05-04 15:38 44.40475 -68.49554 25817 ft 216 kts 239°
2026-05-04 15:38 44.39537 -68.51192 25817 ft 216 kts 239°
2026-05-04 15:38 44.38600 -68.52829 25817 ft 216 kts 239°
2026-05-04 15:38 44.37664 -68.54465 25817 ft 215 kts 239°
2026-05-04 15:39 44.36727 -68.56100 25820 ft 215 kts 239°
2026-05-04 15:39 44.35791 -68.57734 25820 ft 216 kts 239°
2026-05-04 15:39 44.33928 -68.60982 25824 ft 216 kts 239°
2026-05-04 15:40 44.32991 -68.62613 25825 ft 215 kts 239°
2026-05-04 15:40 44.32055 -68.64242 25810 ft 215 kts 239°
2026-05-04 15:40 44.31120 -68.65869 25810 ft 215 kts 239°
2026-05-04 15:40 44.30181 -68.67502 25810 ft 216 kts 239°
2026-05-04 15:41 44.29242 -68.69134 25815 ft 216 kts 239°
2026-05-04 15:41 44.28303 -68.70765 25814 ft 216 kts 239°
2026-05-04 15:41 44.27364 -68.72395 25815 ft 216 kts 239°
2026-05-04 15:41 44.26425 -68.74024 25817 ft 215 kts 239°
2026-05-04 15:42 44.25498 -68.75631 25816 ft 215 kts 239°
2026-05-04 15:42 44.24560 -68.77257 25817 ft 215 kts 239°
2026-05-04 15:42 44.23621 -68.78883 25818 ft 215 kts 239°
2026-05-04 15:42 44.22682 -68.80508 25819 ft 215 kts 239°
2026-05-04 15:43 44.21743 -68.82133 25818 ft 215 kts 239°
2026-05-04 15:43 44.20804 -68.83757 25818 ft 215 kts 239°
2026-05-04 15:43 44.19864 -68.85380 25820 ft 215 kts 239°
2026-05-04 15:43 44.18925 -68.87003 25820 ft 215 kts 239°
2026-05-04 15:44 44.17984 -68.88626 25822 ft 215 kts 239°
2026-05-04 15:44 44.17059 -68.90222 25821 ft 215 kts 239°
2026-05-04 15:44 44.16120 -68.91842 25821 ft 215 kts 239°
2026-05-04 15:44 44.15179 -68.93464 25822 ft 215 kts 239°
2026-05-04 15:45 44.14236 -68.95086 25823 ft 216 kts 239°
2026-05-04 15:45 44.13293 -68.96710 25824 ft 216 kts 239°
2026-05-04 15:45 44.12348 -68.98335 25825 ft 216 kts 239°
2026-05-04 15:45 44.11404 -68.99958 25827 ft 216 kts 239°
2026-05-04 15:46 44.10458 -69.01584 25825 ft 216 kts 239°
2026-05-04 15:46 44.09525 -69.03186 25825 ft 216 kts 238°
2026-05-04 15:46 44.08578 -69.04812 25825 ft 216 kts 238°
2026-05-04 15:46 44.07633 -69.06432 25826 ft 216 kts 238°
2026-05-04 15:47 44.06687 -69.08055 25826 ft 216 kts 239°
2026-05-04 15:47 44.05739 -69.09680 25826 ft 216 kts 238°
2026-05-04 15:47 44.04790 -69.11304 25826 ft 216 kts 238°
2026-05-04 15:47 44.03842 -69.12927 25826 ft 216 kts 238°
2026-05-04 15:48 44.02892 -69.14552 25800 ft 216 kts 238°
2026-05-04 15:48 44.01959 -69.16146 25829 ft 216 kts 238°
2026-05-04 15:48 44.00063 -69.19386 25831 ft 216 kts 238°
2026-05-04 15:49 43.99115 -69.21005 25823 ft 216 kts 238°
2026-05-04 15:49 43.98163 -69.22628 25829 ft 216 kts 238°
2026-05-04 15:49 43.97214 -69.24247 25825 ft 217 kts 238°
2026-05-04 15:49 43.96262 -69.25868 25824 ft 216 kts 238°
2026-05-04 15:50 43.95311 -69.27488 25829 ft 217 kts 238°
2026-05-04 15:50 43.94372 -69.29087 25824 ft 217 kts 238°
2026-05-04 15:50 43.93420 -69.30705 25827 ft 217 kts 238°
2026-05-04 15:50 43.92467 -69.32325 25835 ft 217 kts 238°
2026-05-04 15:51 43.91516 -69.33942 25836 ft 216 kts 238°
2026-05-04 15:51 43.90566 -69.35556 25835 ft 216 kts 238°
2026-05-04 15:51 43.89615 -69.37169 25834 ft 216 kts 238°
2026-05-04 15:51 43.88665 -69.38781 25832 ft 216 kts 238°
2026-05-04 15:52 43.87715 -69.40391 25822 ft 215 kts 238°
2026-05-04 15:52 43.86780 -69.41975 25827 ft 216 kts 238°
2026-05-04 15:52 43.85829 -69.43587 25826 ft 216 kts 238°
2026-05-04 15:52 43.84874 -69.45203 25827 ft 217 kts 238°
2026-05-04 15:53 43.83918 -69.46819 25827 ft 217 kts 238°
2026-05-04 15:53 43.82961 -69.48438 25827 ft 217 kts 238°
2026-05-04 15:53 43.82004 -69.50054 25831 ft 217 kts 238°
2026-05-04 15:53 43.81046 -69.51673 25832 ft 217 kts 238°
2026-05-04 15:54 43.80086 -69.53294 25830 ft 217 kts 238°
2026-05-04 15:54 43.79127 -69.54911 25830 ft 218 kts 238°
2026-05-04 15:54 43.78180 -69.56507 25830 ft 218 kts 238°
2026-05-04 15:54 43.77220 -69.58125 25830 ft 218 kts 238°
2026-05-04 15:55 43.76260 -69.59741 25831 ft 217 kts 238°
2026-05-04 15:55 43.75300 -69.61358 25833 ft 217 kts 238°
2026-05-04 15:55 43.74338 -69.62977 25833 ft 218 kts 238°
2026-05-04 15:55 43.73377 -69.64592 25833 ft 218 kts 238°
2026-05-04 15:56 43.72417 -69.66204 25837 ft 217 kts 238°
2026-05-04 15:56 43.71456 -69.67819 25838 ft 218 kts 238°
2026-05-04 15:56 43.70494 -69.69435 25837 ft 218 kts 238°
2026-05-04 15:56 43.69543 -69.71029 25833 ft 218 kts 238°
2026-05-04 15:57 43.68577 -69.72648 25832 ft 218 kts 238°
2026-05-04 15:57 43.67613 -69.74264 25829 ft 218 kts 238°
2026-05-04 15:57 43.66648 -69.75880 25829 ft 218 kts 238°
2026-05-04 15:57 43.65682 -69.77497 25830 ft 218 kts 238°
2026-05-04 15:58 43.64716 -69.79113 25830 ft 218 kts 238°
2026-05-04 15:58 43.63750 -69.80728 25832 ft 218 kts 238°
2026-05-04 15:58 43.62783 -69.82344 25833 ft 218 kts 238°
2026-05-04 15:58 43.61816 -69.83959 25832 ft 218 kts 238°
2026-05-04 15:59 43.60863 -69.85551 25832 ft 218 kts 238°
2026-05-04 15:59 43.59756 -69.87025 25832 ft 228 kts 224°
2026-05-04 15:59 43.58304 -69.88014 25839 ft 237 kts 212°
2026-05-04 15:59 43.56768 -69.88832 25835 ft 236 kts 211°
2026-05-04 16:00 43.55237 -69.89662 25832 ft 237 kts 212°
2026-05-04 16:00 43.53708 -69.90506 25833 ft 237 kts 212°
2026-05-04 16:00 43.52175 -69.91354 25834 ft 237 kts 212°
2026-05-04 16:00 43.50640 -69.92198 25834 ft 238 kts 212°
2026-05-04 16:01 43.49126 -69.93030 25835 ft 238 kts 212°
2026-05-04 16:01 43.47588 -69.93875 25836 ft 238 kts 212°
2026-05-04 16:01 43.46049 -69.94720 25836 ft 238 kts 212°
2026-05-04 16:01 43.44511 -69.95565 25836 ft 238 kts 212°
2026-05-04 16:02 43.42973 -69.96408 25839 ft 238 kts 212°
2026-05-04 16:02 43.41434 -69.97252 25839 ft 238 kts 212°
2026-05-04 16:02 43.38360 -69.98936 25835 ft 238 kts 212°
2026-05-04 16:03 43.36821 -69.99778 25834 ft 238 kts 212°
2026-05-04 16:03 43.35283 -70.00621 25835 ft 238 kts 212°
2026-05-04 16:03 43.33761 -70.01452 25836 ft 238 kts 212°
2026-05-04 16:03 43.32220 -70.02295 25836 ft 239 kts 212°
2026-05-04 16:04 43.30678 -70.03137 25836 ft 239 kts 212°
2026-05-04 16:04 43.27591 -70.04822 25840 ft 239 kts 212°
2026-05-04 16:04 43.26047 -70.05663 25840 ft 239 kts 212°
2026-05-04 16:05 43.24505 -70.06504 25838 ft 239 kts 212°
2026-05-04 16:05 43.22960 -70.07346 25840 ft 239 kts 212°
2026-05-04 16:05 43.19901 -70.09010 25844 ft 238 kts 211°
2026-05-04 16:06 43.18362 -70.09847 25843 ft 238 kts 212°
2026-05-04 16:06 43.14268 -70.12071 25843 ft 238 kts 211°
2026-05-04 16:07 43.12209 -70.13189 25843 ft 238 kts 211°
2026-05-04 16:07 43.07592 -70.15692 25849 ft 238 kts 211°
2026-05-04 16:08 43.06075 -70.16513 25849 ft 238 kts 211°
2026-05-04 16:08 43.01457 -70.19011 25849 ft 238 kts 211°
2026-05-04 16:09 42.98378 -70.20674 25847 ft 239 kts 211°
2026-05-04 16:09 42.95277 -70.22348 25846 ft 240 kts 211°
2026-05-04 16:10 42.92184 -70.24014 25847 ft 241 kts 211°
2026-05-04 16:11 42.87502 -70.26534 25855 ft 240 kts 211°
2026-05-04 16:11 42.85945 -70.27371 25855 ft 240 kts 211°
2026-05-04 16:12 42.81273 -70.29881 25853 ft 241 kts 211°
2026-05-04 16:12 42.76617 -70.32377 25861 ft 241 kts 211°
2026-05-04 16:13 42.73500 -70.34047 25858 ft 241 kts 211°
2026-05-04 16:13 42.70379 -70.35716 25842 ft 241 kts 211°
2026-05-04 16:14 42.67273 -70.37376 25858 ft 240 kts 211°
2026-05-04 16:14 42.64167 -70.39033 25868 ft 240 kts 211°
2026-05-04 16:15 42.59536 -70.41502 25877 ft 239 kts 211°
2026-05-04 16:16 42.56431 -70.43155 25798 ft 242 kts 211°
2026-05-04 16:16 42.51471 -70.45791 24931 ft 256 kts 210°
2026-05-04 16:17 42.48192 -70.47534 24527 ft 254 kts 210°
2026-05-04 16:18 42.43270 -70.50143 23975 ft 252 kts 210°
2026-05-04 16:18 42.41636 -70.51008 23799 ft 252 kts 210°
2026-05-04 16:19 42.36759 -70.53588 23275 ft 250 kts 210°
2026-05-04 16:19 42.33525 -70.55296 22870 ft 249 kts 210°
2026-05-04 16:20 42.28718 -70.57831 22365 ft 248 kts 210°
2026-05-04 16:20 42.25517 -70.59517 22054 ft 247 kts 210°
2026-05-04 16:21 42.20785 -70.62003 21894 ft 238 kts 210°
2026-05-04 16:22 42.17733 -70.63608 21884 ft 235 kts 210°
2026-05-04 16:22 42.13224 -70.65973 21882 ft 230 kts 210°
2026-05-04 16:23 42.08736 -70.68328 21694 ft 235 kts 210°
2026-05-04 16:24 42.02463 -70.71605 20500 ft 243 kts 209°
2026-05-04 16:25 41.99295 -70.73263 19824 ft 245 kts 209°
2026-05-04 16:26 41.92967 -70.76560 18535 ft 242 kts 209°
2026-05-04 16:26 41.88579 -70.79503 17481 ft 233 kts 219°
2026-05-04 16:27 41.85763 -70.81608 16781 ft 229 kts 216°
2026-05-04 16:28 41.81645 -70.84640 15882 ft 222 kts 216°
2026-05-04 16:28 41.77647 -70.87588 15039 ft 217 kts 216°
2026-05-04 16:29 41.72359 -70.91481 13897 ft 216 kts 216°
2026-05-04 16:30 41.68502 -70.94314 13031 ft 208 kts 215°
2026-05-04 16:31 41.65984 -70.96162 12490 ft 205 kts 215°
2026-05-04 16:31 41.62244 -70.98906 11672 ft 204 kts 215°
2026-05-04 16:32 41.58623 -71.01555 10898 ft 193 kts 215°
2026-05-04 16:33 41.56320 -71.03239 10406 ft 186 kts 215°
2026-05-04 16:33 41.54071 -71.04884 9918 ft 183 kts 215°
2026-05-04 16:34 41.51859 -71.06499 9424 ft 179 kts 215°
2026-05-04 16:34 41.50773 -71.07293 9199 ft 183 kts 215°
2026-05-04 16:35 41.47357 -71.09784 8471 ft 187 kts 214°
2026-05-04 16:35 41.43939 -71.12274 7735 ft 186 kts 214°
2026-05-04 16:36 41.42806 -71.13099 7497 ft 186 kts 214°
2026-05-04 16:36 41.40541 -71.14745 7002 ft 184 kts 214°
2026-05-04 16:37 41.38325 -71.16355 6515 ft 179 kts 214°
2026-05-04 16:37 41.37241 -71.17153 6300 ft 176 kts 217°
2026-05-04 16:37 41.35273 -71.19022 5831 ft 174 kts 220°
2026-05-04 16:38 41.33322 -71.20863 5382 ft 172 kts 220°
2026-05-04 16:39 41.30400 -71.23627 4677 ft 172 kts 220°
2026-05-04 16:39 41.28459 -71.25460 4225 ft 170 kts 220°
2026-05-04 16:40 41.26549 -71.27262 3777 ft 167 kts 221°
2026-05-04 16:40 41.24670 -71.29036 3340 ft 166 kts 220°
2026-05-04 16:41 41.22788 -71.30810 2898 ft 164 kts 221°
2026-05-04 16:41 41.20016 -71.33458 2248 ft 164 kts 225°
2026-05-04 16:42 41.18512 -71.37024 1988 ft 131 kts 256°
2026-05-04 16:43 41.18318 -71.39260 1989 ft 116 kts 259°
2026-05-04 16:43 41.18146 -71.41371 1958 ft 116 kts 260°
2026-05-04 16:43 41.18059 -71.42449 1887 ft 119 kts 259°
2026-05-04 16:44 41.17698 -71.46914 1554 ft 125 kts 259°
2026-05-04 16:45 41.17525 -71.49077 1489 ft 104 kts 258°
2026-05-04 16:46 41.17330 -71.51592 1094 ft 87 kts 258°
2026-05-04 16:46 41.17219 -71.53120 796 ft 76 kts 255°
2026-05-04 16:47 41.17068 -71.54457 651 ft 74 kts 254°
2026-05-04 16:47 41.16965 -71.55921 375 ft 83 kts 257°
2026-05-04 16:48 41.16808 -71.57792 113 ft 38 kts 265°
2026-05-04 16:48 41.16797 -71.57998 111 ft 9 kts 289°
2026-05-04 16:49 41.16840 -71.58023 111 ft 3 kts 347°
2026-05-04 16:49 41.16879 -71.58041 110 ft 6 kts 35°
2026-05-04 16:50 41.16907 -71.58012 110 ft 0 kts 354°